Location: *
(33.8649°S, 62.1526°E)
Time: 11:36:42
(UTC+00:00)

SeaSat 1 - Pass Details

Date: 17 January 2021
Orbit: 744 x 747 km, 108.0° (Epoch: 03 March)

Event Time Altitude Azimuth Distance (km) Brightness Sun altitude
Rises 22:59:54 0° 151° (SSE) 3,217 7.1 -21.0°
Reaches altitude 10° 23:02:14 10° 146° (SSE) 2,285 6.1 -20.7°
Maximum altitude 23:07:07 55° 68° (ENE) 897 2.9 -19.9°
Enters shadow 23:09:43 26° 1° (N) 1,436 3.5 -19.6°
